Regional Weather Roundup
Issued by NWS Sioux Falls, SD

Home | Current Version | Previous Version | Text Only | Print | Product List | Glossary Off
Versions: 1 2 3 4 5 6 7 8 9 10 11 12 13 14 15 16 17 18 19 20 21 22 23 24 25 26 27 28 29 30 31 32 33 34 35 36 37 38 39 40 41 42 43 44 45 46 47 48 49 50

000
ASUS43 KFSD 241302
RWRFSD

WEATHER ROUNDUP FOR SE SOUTH DAKOTA/SW MINNESOTA/NW IOWA
NATIONAL WEATHER SERVICE SIOUX FALLS SD
800 AM CDT FRI OCT 24 2014

NOTE: "FAIR" INDICATES FEW OR NO CLOUDS BELOW 12,000 FEET WITH NO
SIGNIFICANT WEATHER AND OR OBSTRUCTIONS TO VISIBILITY.


SDZ038>040-050-052>070-241400-
SOUTHEAST SOUTH DAKOTA

CITY           SKY/WX    TMP DP  RH WIND       PRES   REMARKS
CHAMBERLAIN    CLOUDY    43  35  71 W6        29.88S
HURON          CLOUDY    38  36  92 NW6       29.86R
MADISON        FOG       41  41 100 CALM      29.85R VSB<1/4
MITCHELL       CLOUDY    46  41  82 W5        29.87R
SIOUX FALLS    MOCLDY    49  49 100 W3        29.85S FOG
WINNER         FAIR      54  32  43 SW6       29.90R
YANKTON        CLOUDY    52  48  87 W7        29.87R
$$

MNZ071-072-080-081-089-090-097-098-241400-
SOUTHWEST MINNESOTA

CITY           SKY/WX    TMP DP  RH WIND       PRES   REMARKS
FAIRMONT       MOCLDY    52  45  76 S10       29.86S
JACKSON        PTCLDY    52  48  87 SW9       29.85F
LUVERNE        FOG       45  43  93 CALM      29.85F VSB 1/4
MARSHALL       MOCLDY    50  45  81 NW5       29.83R
MONTEVIDEO     MOCLDY    45  43  93 CALM      29.84S
PIPESTONE      MOCLDY    48  46  93 CALM      29.85R FOG
REDWOOD FALLS  CLOUDY    43  41  93 SE5       29.83S
TRACY          MOCLDY    53  50  90 SW9       29.83S
WINDOM         MOCLDY    52  48  87 S9        29.83F
WORTHINGTON    PTCLDY    52  48  87 SW13      29.84F
$$

IAZ001>003-012>014-020>022-031-032-NEZ013-014-SDZ071-241400-
NORTHWEST IOWA

CITY           SKY/WX    TMP DP  RH WIND       PRES   REMARKS
CHEROKEE       MOCLDY    54  54 100 S5        29.87S FOG
DENISON        MOCLDY    57  57 100 S10G18    29.89F FOG
ESTHERVILLE    PTCLDY    48  46  93 S9        29.86S
LE MARS        MOCLDY    50  50 100 S7        29.87S FOG
ORANGE CITY    MOCLDY    52  50  93 S6        29.86F FOG
SHELDON        MOCLDY    52  52 100 SW8       29.85S
SIOUX CITY     CLOUDY    54  53  97 S5        29.88S FOG
SPENCER        MOCLDY    51  49  92 SW7       29.87S FOG
STORM LAKE     MOCLDY    57  55  94 SW13      29.89S FOG
$$

ABBREVIATIONS USED IN REMARKS
   TC - TEMPERATURE IN CELSIUS
  WCI - WIND CHILL INDEX
   HX - HEAT INDEX
  VSB - VISIBILITY




USA.gov is the U.S. government's official web portal to all federal, state and local government web resources and services.